BEIJING 1 1 28890U 05043A 26166.64652933 .00000221 00000+0 52055-4 0 9993 2 28890 98.2908 299.8503 0013390 288.9233 71.0517 14.63531618100428 HUANJING 1A (HJ-1A) 1 33320U 08041A 26166.61548698 .00000569 00000+0 74282-4 0 9998 2 33320 97.6675 152.5144 0019830 139.4914 220.7781 14.83982449958176 HUANJING 1B (HJ-1B) 1 33321U 08041B 26166.65130595 .00000582 00000+0 76576-4 0 9999 2 33321 97.6508 155.7249 0035854 186.0943 173.9841 14.83313137958186 YAOGAN-4 1 33446U 08061A 26166.54798695 .00000846 00000+0 10997-3 0 9995 2 33446 97.9307 100.0703 0015743 77.3071 282.9902 14.83197278945429 DEIMOS-1 1 35681U 09041A 26166.55852214 .00000843 00000+0 13168-3 0 9996 2 35681 97.7393 323.8566 0001492 131.5476 228.5862 14.75237773906643 UK-DMC 2 1 35683U 09041C 26166.59884510 .00000522 00000+0 82907-4 0 9998 2 35683 97.8832 301.6037 0001176 77.4218 282.7123 14.76024009906337 DMC3-FM1 1 40715U 15032A 26166.58900968 .00001101 00000+0 13269-3 0 9990 2 40715 97.6467 31.8272 0007073 64.2256 295.9689 14.85739243589672 DMC3-FM2 1 40716U 15032B 26166.61106712 .00000595 00000+0 74435-4 0 9999 2 40716 97.6523 33.4212 0007659 67.8539 292.3490 14.85744039589671 DMC3-FM3 1 40717U 15032C 26166.63438389 -.00000059 00000+0 -88132-6 0 9998 2 40717 97.6574 35.1954 0006777 67.8885 292.3050 14.85729948589689